STARLINK-35606, 66171

Orbit data source: Space-Track

STARLINK-35606, 66171 is a payload satellite owned by SpaceX/Seattle (US) in LEO that was launched on Sat, 25 Oct 2025 UTC via an FALCON 9 launch vehicle from the Air Force Eastern Test Range (AFETR). Payload-class satellites include a variety of spacecraft equipped with specific instruments for various scientific and technological missions. These include communications satellites like Starlink; space stations such as the ISS; scientific satellites like the Hubble; Earth observation satellites from companies like Planet Labs, Umbra, and HawkEye 360; GPS; miniature CubeSats for education and research; and military/defense satellites.

Loading next visibility...
Identifier
66171, 2025-240AB
Orbit
LEO
Country
Flag of USUS
Related business
Manufacturer
SpaceX/Seattle
Mission
Operational Commercial Communications
Bus & Motor
STARLINK V2MO, Unknown motor
Mass
575 kg wet, ~530 kg dry
Launch date (UTC)
2025-10-25 (8 months ago)
Launch vehicle
FALCON 9
Launch site
Air Force Eastern Test Range (AFETR)
Object type
Payload
Rocket body
Debris
Shape & HBR
Box + 2 Pan, 17.7 m
Radar Cross Section
36.964 m², Large (>1 m²)

Expand to show TLE details & history
Last TLE update: 1 day ago

TLE from 1 day ago
0 STARLINK-35606
1 66171U 25240AB  26170.66114358  .00020879  00000-0  62708-3 0  9996
2 66171  53.1602 307.5317 0001096  89.5323 270.5805 15.34413408 37620
Epoch: 2026-06-19T15:52Z
TLE epoch observation values (Epoch: 2026-06-19T15:52:02.805Z)
Latitude
-0.00003°
Longitude
161.63307°
Altitude
463.557 km
Speed
7.636 km/s
True Right ascension
20h 30m 07s
True Declination
0° 00' 00"
Sunlit
Object was in full shadow at epoch
Visualization orbit readout
Latitude
Unknown
Longitude
Unknown
Altitude
Unknown
Speed
Unknown
Apparent Right ascension
Unknown
Apparent Declination
Unknown
Sunlit
N/A
Visualization observer readout
Local Sidereal Time
07:18:24
Azimuth
Unknown
Elevation
Unknown
Doppler factor
Unknown
Orbital elements
Apogee altitude
463.67 km
Perigee altitude
462.17 km
Semi-major axis
6,841.057 km
Eccentricity
0.00011
Inclination
53.1602°
RAAN
307.5317°
Arg. of periapsis
89.5323°
True anomaly
270.56794°
Mean anomaly
270.5805°
Eccentric anomaly
270.57422°
Mean motion
3.83582 °/min
Orbital period
93.85 mins
BSTAR
0.00062708
Loading maneuver chart data...
Computing Atmospheric mass density...
Loading historical data...
Loading historical data...
Loading historical data...
Loading historical data...
Loading historical data...
Loading historical data...
Loading historical data...

Documentation

Showing up to 5 results
|